"Platform","Saginaw Bay ReCON Buoy"
"NDBC ID","45163"
"Latitude (deg)",43.98440
"Longitude (deg)",-83.59753
"Water Depth (m)",12.7
"Sensor Device","AirMar Weather Station Model 200WX"
"Sensor Serial No.","60221354"
"Sensor Height","2.5 meters above water surface"
"Sensor Type","Sensor Z acceleration"
"Sensor Units","degrees per second"
"Measurement","2 minute average of data samples taken at 5 second interval"
"Time means","Time at end of averaging period (UTC time zone)"

"Note:","This data was collected for research purposes."
"Note:","Minimal quality checking has been performed so data may contain known or unknown errors."
"Note:","Data provided by NOAA. Please credit NOAA."
"Note:","For more info see www.glerl.noaa.gov/res/recon"

"Time (UTC)","Z Acceleration"
"YYYY/MM/DD HH:MM","deg/sec"
2024/05/16 00:04, 0.9578333
2024/05/16 00:06, 0.9580417
2024/05/16 00:08, 0.957875
2024/05/16 00:10, 0.9580417
2024/05/16 00:12, 0.9575
2024/05/16 00:14, 0.9575417
2024/05/16 00:16, 0.9572499
2024/05/16 00:18, 0.9567082
2024/05/16 00:20, 0.9572499
2024/05/16 00:22, 0.9571666
2024/05/16 00:24, 0.9569583
2024/05/16 00:26, 0.9574166
2024/05/16 00:28, 0.957625
2024/05/16 00:30, 0.9566666
2024/05/16 00:32, 0.9565416
2024/05/16 00:34, 0.9568333
2024/05/16 00:36, 0.9568333
2024/05/16 00:38, 0.9565833
2024/05/16 00:40, 0.9567082
2024/05/16 00:42, 0.9565
2024/05/16 00:44, 0.9562916
2024/05/16 00:46, 0.9565833
2024/05/16 00:48, 0.9569166
2024/05/16 00:50, 0.9562916
2024/05/16 00:52, 0.9564166
2024/05/16 00:54, 0.9568333
2024/05/16 00:56, 0.9562173
2024/05/16 00:58, 0.9558749
2024/05/16 01:00, 0.9560416
2024/05/16 01:02, 0.9559166
2024/05/16 01:04, 0.9559583
2024/05/16 01:06, 0.9560416
2024/05/16 01:08, 0.9556249
2024/05/16 01:10, 0.9562083
2024/05/16 01:12, 0.9557082
2024/05/16 01:14, 0.9564166
2024/05/16 01:16, 0.9562273
2024/05/16 01:18, 0.9565
2024/05/16 01:20, 0.956125
2024/05/16 01:22, 0.9561666
2024/05/16 01:24, 0.9557082
2024/05/16 01:26, 0.9556666
2024/05/16 01:28, 0.9557082
2024/05/16 01:30, 0.9558749
2024/05/16 01:32, 0.9554999
2024/05/16 01:34, 0.955375
2024/05/16 01:36, 0.9554545
2024/05/16 01:38, 0.9556666
2024/05/16 01:40, 0.9552916
2024/05/16 01:42, 0.9549582
2024/05/16 01:44, 0.9551249
2024/05/16 01:46, 0.9551249
2024/05/16 01:48, 0.9552916
2024/05/16 01:50, 0.9554999
2024/05/16 01:52, 0.95525
2024/05/16 01:54, 0.9549166
2024/05/16 01:56, 0.9551249
2024/05/16 01:58, 0.9550833
2024/05/16 02:00, 0.9552083
2024/05/16 02:02, 0.9554582
2024/05/16 02:04, 0.9551666
2024/05/16 02:06, 0.952625
2024/05/16 02:08, 0.9541666
2024/05/16 02:10, 0.9549582
2024/05/16 02:12, 0.9555833
2024/05/16 02:14, 0.95475
2024/05/16 02:16, 0.9549545
2024/05/16 02:18, 0.9544166
2024/05/16 02:20, 0.9550833
2024/05/16 02:22, 0.9548333
2024/05/16 02:24, 0.954625
2024/05/16 02:26, 0.954375
2024/05/16 02:28, 0.9545832
2024/05/16 02:30, 0.9545832
2024/05/16 02:32, 0.9549582
2024/05/16 02:34, 0.9548333
2024/05/16 02:36, 0.9548333
2024/05/16 02:38, 0.9544166
2024/05/16 02:40, 0.9543333
2024/05/16 02:42, 0.9542499
2024/05/16 02:44, 0.9542916
2024/05/16 02:46, 0.9540833
2024/05/16 02:48, 0.954
2024/05/16 02:50, 0.9538333
2024/05/16 02:52, 0.954125
2024/05/16 02:54, 0.954125
2024/05/16 02:56, 0.9542727
2024/05/16 02:58, 0.954375
2024/05/16 03:00, 0.9540833
2024/05/16 03:02, 0.9542916
2024/05/16 03:04, 0.954125
2024/05/16 03:06, 0.9540833
2024/05/16 03:08, 0.9536666
2024/05/16 03:10, 0.954125
2024/05/16 03:12, 0.953875
2024/05/16 03:14, 0.9539582
2024/05/16 03:16, 0.9539999
2024/05/16 03:18, 0.9542083
2024/05/16 03:20, 0.9537499
2024/05/16 03:22, 0.9539582
2024/05/16 03:24, 0.9539166
2024/05/16 03:26, 0.9543333
2024/05/16 03:28, 0.954125
2024/05/16 03:30, 0.9543333
2024/05/16 03:32, 0.9541666
2024/05/16 03:34, 0.953875
2024/05/16 03:36, 0.954409
2024/05/16 03:38, 0.9543333
2024/05/16 03:40, 0.954
2024/05/16 03:42, 0.9540833
2024/05/16 03:44, 0.954125
2024/05/16 03:46, 0.954375
2024/05/16 03:48, 0.9540833
2024/05/16 03:50, 0.9541666
2024/05/16 03:52, 0.9537916
2024/05/16 03:54, 0.9537083
2024/05/16 03:56, 0.9540454
2024/05/16 03:58, 0.953625
2024/05/16 04:00, 0.9535416
2024/05/16 04:02, 0.9530416
2024/05/16 04:04, 0.9533333
2024/05/16 04:06, 0.9535416
2024/05/16 04:08, 0.9532499
2024/05/16 04:10, 0.9534166
2024/05/16 04:12, 0.9538333
2024/05/16 04:14, 0.953625
2024/05/16 04:16, 0.9538636
2024/05/16 04:18, 0.9539582
2024/05/16 04:20, 0.9537499
2024/05/16 04:22, 0.9537916
2024/05/16 04:24, 0.9537083
2024/05/16 04:26, 0.9534583
2024/05/16 04:28, 0.9536666
2024/05/16 04:30, 0.9535
2024/05/16 04:32, 0.954
2024/05/16 04:34, 0.9535833
2024/05/16 04:36, 0.9531304
2024/05/16 04:38, 0.9532082
2024/05/16 04:40, 0.9532082
2024/05/16 04:42, 0.9530416
2024/05/16 04:44, 0.9530416
2024/05/16 04:46, 0.9530416
2024/05/16 04:48, 0.953
2024/05/16 04:50, 0.9528334
2024/05/16 04:52, 0.9528334
2024/05/16 04:54, 0.952875
2024/05/16 04:56, 0.953409
2024/05/16 04:58, 0.9534583
2024/05/16 05:00, 0.953625
2024/05/16 05:02, 0.9532917
2024/05/16 05:04, 0.9528334
2024/05/16 05:06, 0.953125
2024/05/16 05:08, 0.9528334
2024/05/16 05:10, 0.9529166
2024/05/16 05:12, 0.9527083
2024/05/16 05:14, 0.9532082
2024/05/16 05:16, 0.9529546
2024/05/16 05:18, 0.9533333
2024/05/16 05:20, 0.9530416
2024/05/16 05:22, 0.9531666
2024/05/16 05:24, 0.9528334
2024/05/16 05:26, 0.952875
2024/05/16 05:28, 0.9532917
2024/05/16 05:30, 0.953
2024/05/16 05:32, 0.9529583
2024/05/16 05:34, 0.9527083
2024/05/16 05:36, 0.9532272
2024/05/16 05:38, 0.9529583
2024/05/16 05:40, 0.9532499
2024/05/16 05:42, 0.9530833
2024/05/16 05:44, 0.952625
2024/05/16 05:46, 0.9528334
2024/05/16 05:48, 0.952625
2024/05/16 05:50, 0.9527916
2024/05/16 05:52, 0.9527083
2024/05/16 05:54, 0.9524583
2024/05/16 05:56, 0.9528182
2024/05/16 05:58, 0.95275
2024/05/16 06:00, 0.9530416
2024/05/16 06:02, 0.9530416
2024/05/16 06:04, 0.952625
2024/05/16 06:06, 0.9526667
2024/05/16 06:08, 0.95275
2024/05/16 06:10, 0.95275
2024/05/16 06:12, 0.9525417
2024/05/16 06:14, 0.9527083
2024/05/16 06:16, 0.9528182
2024/05/16 06:18, 0.952875
2024/05/16 06:20, 0.952625
2024/05/16 06:22, 0.9525833
2024/05/16 06:24, 0.9528334
2024/05/16 06:26, 0.9528334
2024/05/16 06:28, 0.9527083
2024/05/16 06:30, 0.9527916
2024/05/16 06:32, 0.9529583
2024/05/16 06:34, 0.9530416
2024/05/16 06:36, 0.9528182
2024/05/16 06:38, 0.9523333
2024/05/16 06:40, 0.952625
2024/05/16 06:42, 0.9528334
2024/05/16 06:44, 0.9531666
2024/05/16 06:46, 0.953
2024/05/16 06:48, 0.9530416
2024/05/16 06:50, 0.9530833
2024/05/16 06:52, 0.953625
2024/05/16 06:54, 0.9532917
2024/05/16 06:56, 0.953
2024/05/16 06:58, 0.9525833
2024/05/16 07:00, 0.9525417
2024/05/16 07:02, 0.9529583
2024/05/16 07:04, 0.9527916
2024/05/16 07:06, 0.9529583
2024/05/16 07:08, 0.95275
2024/05/16 07:10, 0.9524999
2024/05/16 07:12, 0.9520834
2024/05/16 07:14, 0.952
2024/05/16 07:16, 0.9524545
2024/05/16 07:18, 0.9521666
2024/05/16 07:20, 0.952125
2024/05/16 07:22, 0.9519583
2024/05/16 07:24, 0.9524583
2024/05/16 07:26, 0.952625
2024/05/16 07:28, 0.9523333
2024/05/16 07:30, 0.9523333
2024/05/16 07:32, 0.9527083
2024/05/16 07:34, 0.952625
2024/05/16 07:36, 0.9527726
2024/05/16 07:38, 0.9524583
2024/05/16 07:40, 0.9524166
2024/05/16 07:42, 0.9519583
2024/05/16 07:44, 0.9524166
2024/05/16 07:46, 0.9523333
2024/05/16 07:48, 0.9522917
2024/05/16 07:50, 0.9525833
2024/05/16 07:52, 0.9524999
2024/05/16 07:54, 0.9519583
2024/05/16 07:56, 0.952409
2024/05/16 07:58, 0.95275
2024/05/16 08:00, 0.952625
2024/05/16 08:02, 0.952125
2024/05/16 08:04, 0.95275
2024/05/16 08:06, 0.9525417
2024/05/16 08:08, 0.9524999
2024/05/16 08:10, 0.9525833
2024/05/16 08:12, 0.95225
2024/05/16 08:14, 0.9521666
2024/05/16 08:16, 0.952409
2024/05/16 08:18, 0.9527083
2024/05/16 08:20, 0.952125
2024/05/16 08:22, 0.9519166
2024/05/16 08:24, 0.9520834
2024/05/16 08:26, 0.951625
2024/05/16 08:28, 0.95175
2024/05/16 08:30, 0.9520834
2024/05/16 08:32, 0.9520833
2024/05/16 08:34, 0.951875
2024/05/16 08:36, 0.9519545
2024/05/16 08:38, 0.9512499
2024/05/16 08:40, 0.9517916
2024/05/16 08:42, 0.9517083
2024/05/16 08:44, 0.9517916
2024/05/16 08:46, 0.9518333
2024/05/16 08:48, 0.9525417
2024/05/16 08:50, 0.9524999
2024/05/16 08:52, 0.9524999
2024/05/16 08:54, 0.9522083
2024/05/16 08:56, 0.951909
2024/05/16 08:58, 0.95175
2024/05/16 09:00, 0.95225
2024/05/16 09:02, 0.952125
2024/05/16 09:04, 0.9520834
2024/05/16 09:06, 0.952125
2024/05/16 09:08, 0.9522917
2024/05/16 09:10, 0.9520834
2024/05/16 09:12, 0.95225
2024/05/16 09:14, 0.9522917
2024/05/16 09:16, 0.953
2024/05/16 09:18, 0.95225
2024/05/16 09:20, 0.952125
2024/05/16 09:22, 0.9524166
2024/05/16 09:24, 0.95225
2024/05/16 09:26, 0.9528334
2024/05/16 09:28, 0.9525417
2024/05/16 09:30, 0.952375
2024/05/16 09:32, 0.9523333
2024/05/16 09:34, 0.9517916
2024/05/16 09:36, 0.9524545
2024/05/16 09:38, 0.9522083
2024/05/16 09:40, 0.952
2024/05/16 09:42, 0.9525417
2024/05/16 09:44, 0.9520416
2024/05/16 09:46, 0.952
2024/05/16 09:48, 0.9514999
2024/05/16 09:50, 0.9520833
2024/05/16 09:52, 0.9518333
2024/05/16 09:54, 0.9525833
2024/05/16 09:56, 0.9531818
2024/05/16 09:58, 0.9527083
2024/05/16 10:00, 0.952625
2024/05/16 10:02, 0.9518333
2024/05/16 10:04, 0.9514582
2024/05/16 10:06, 0.9514582
2024/05/16 10:08, 0.9509583
2024/05/16 10:10, 0.951625
2024/05/16 10:12, 0.9509582
2024/05/16 10:14, 0.951375
2024/05/16 10:16, 0.9512273
2024/05/16 10:18, 0.951625
2024/05/16 10:20, 0.9515417
2024/05/16 10:22, 0.9524999
2024/05/16 10:24, 0.9492082
2024/05/16 10:26, 0.9484582
2024/05/16 10:28, 0.943625
2024/05/16 10:30, 0.932375
2024/05/16 10:32, 0.923125
2024/05/16 10:34, 0.9192083
2024/05/16 10:36, 0.9225833
2024/05/16 10:38, 0.9224999
2024/05/16 10:40, 0.9222916
2024/05/16 10:42, 0.9160833
2024/05/16 10:44, 0.9275417
2024/05/16 10:46, 0.9244582
2024/05/16 10:48, 0.9214166
2024/05/16 10:50, 0.9234166
2024/05/16 10:52, 0.9252916
2024/05/16 10:54, 0.9304583
2024/05/16 10:56, 0.9229999
2024/05/16 10:58, 0.92225
2024/05/16 11:00, 0.9266666
2024/05/16 11:02, 0.9283333
2024/05/16 11:04, 0.9226666
2024/05/16 11:06, 0.9229166
2024/05/16 11:08, 0.9276666
2024/05/16 11:10, 0.9317916
2024/05/16 11:12, 0.9245
2024/05/16 11:14, 0.9308333
2024/05/16 11:16, 0.9290833
2024/05/16 11:18, 0.9162082
2024/05/16 11:20, 0.9132916
2024/05/16 11:22, 0.9239583
2024/05/16 11:24, 0.9205833
2024/05/16 11:26, 0.9237499
2024/05/16 11:28, 0.9229166
2024/05/16 11:30, 0.927
2024/05/16 11:32, 0.925125
2024/05/16 11:34, 0.928375
2024/05/16 11:36, 0.9254582
2024/05/16 11:38, 0.9256666
2024/05/16 11:40, 0.9209166
2024/05/16 11:42, 0.9231666
2024/05/16 11:44, 0.9229999
2024/05/16 11:46, 0.926375
2024/05/16 11:48, 0.927125
2024/05/16 11:50, 0.9299166
2024/05/16 11:52, 0.924375
2024/05/16 11:54, 0.9237082
2024/05/16 11:56, 0.92375
2024/05/16 11:58, 0.924375
2024/05/16 12:00, 0.9252916
2024/05/16 12:02, 0.9235833
2024/05/16 12:04, 0.9229999
2024/05/16 12:06, 0.9269583
2024/05/16 12:08, 0.9240833
2024/05/16 12:10, 0.9218333
2024/05/16 12:12, 0.922625
2024/05/16 12:14, 0.9245417
2024/05/16 12:16, 0.9211666
2024/05/16 12:18, 0.9267916
2024/05/16 12:20, 0.9332917
2024/05/16 12:22, 0.920875
2024/05/16 12:24, 0.9224166
2024/05/16 12:26, 0.9199583
2024/05/16 12:28, 0.9185834
2024/05/16 12:30, 0.9214166
2024/05/16 12:32, 0.9247916
2024/05/16 12:34, 0.9257499
2024/05/16 12:36, 0.9172082
2024/05/16 12:38, 0.9177499
2024/05/16 12:40, 0.9209583
2024/05/16 12:42, 0.9249167
2024/05/16 12:44, 0.914375
2024/05/16 12:46, 0.919125
2024/05/16 12:48, 0.922125
2024/05/16 12:50, 0.9224583
2024/05/16 12:52, 0.9192499
2024/05/16 12:54, 0.9145417
2024/05/16 12:56, 0.9214583
2024/05/16 12:58, 0.919875
2024/05/16 13:00, 0.9164999
2024/05/16 13:02, 0.92275
2024/05/16 13:04, 0.920375
2024/05/16 13:06, 0.920875
2024/05/16 13:08, 0.919375
2024/05/16 13:10, 0.912375
2024/05/16 13:12, 0.9245833
2024/05/16 13:14, 0.92175
2024/05/16 13:16, 0.9211666
2024/05/16 13:18, 0.91975
2024/05/16 13:20, 0.927375
2024/05/16 13:22, 0.927375
2024/05/16 13:24, 0.8261429
2024/05/16 13:26, 0.3737083
2024/05/16 13:28, 0.3755416
2024/05/16 13:30, 0.3713333
2024/05/16 13:32, 0.3740416
2024/05/16 13:34, 0.370875
2024/05/16 13:36, 0.3820833
2024/05/16 13:38, 0.3809583
2024/05/16 13:40, 0.3585416
2024/05/16 13:42, 0.3098333
2024/05/16 13:44, 0.299875
2024/05/16 13:46, 0.293
2024/05/16 13:48, 0.3045417
2024/05/16 13:50, 0.3189583
2024/05/16 13:52, 0.3837083
2024/05/16 13:54, 0.3829166
2024/05/16 13:56, 0.3403333
2024/05/16 13:58, 0.3785416
2024/05/16 14:00, 0.3762916
2024/05/16 14:02, 0.3744583
2024/05/16 14:04, 0.377125
2024/05/16 14:06, 0.3785416
2024/05/16 14:08, 0.373
2024/05/16 14:10, 0.3725833
2024/05/16 14:12, 0.3735
2024/05/16 14:14, 0.381125
2024/05/16 14:16, 0.378875
2024/05/16 14:18, 0.3748333
2024/05/16 14:20, 0.381
2024/05/16 14:22, 0.3690416
2024/05/16 14:24, 0.3786666
2024/05/16 14:26, 0.3782083
2024/05/16 14:28, 0.371125
2024/05/16 14:30, 0.3876667
2024/05/16 14:32, 0.3707083
2024/05/16 14:34, 0.3754583
2024/05/16 14:36, 0.3717916
2024/05/16 14:38, 0.3800833
2024/05/16 14:40, 0.3773333
2024/05/16 14:42, 0.375375
2024/05/16 14:44, 0.3735833
2024/05/16 14:46, 0.372875
2024/05/16 14:48, 0.372625
2024/05/16 14:50, 0.3388333
2024/05/16 14:52, 0.3125417
2024/05/16 14:54, 0.3160833
2024/05/16 14:56, 0.3105833
2024/05/16 14:58, 0.3174166
2024/05/16 15:00, 0.3174583
2024/05/16 15:02, 0.1464167
2024/05/16 15:04, -0.024
2024/05/16 15:06, 0.5789583
2024/05/16 15:08, 0.9852917
2024/05/16 15:10, 0.9927499
2024/05/16 15:12, 0.9909999
2024/05/16 15:14, 0.988375
2024/05/16 15:16, 0.9797082
2024/05/16 15:18, 1.004208
2024/05/16 15:20, 0.9937083
2024/05/16 15:22, 0.9877916
2024/05/16 15:24, 0.975125
2024/05/16 15:26, 0.9890416
2024/05/16 15:28, 0.9885416
2024/05/16 15:30, 0.9993334
2024/05/16 15:32, 0.9869582
2024/05/16 15:34, 0.991375
2024/05/16 15:36, 0.977375
2024/05/16 15:38, 0.9870417
2024/05/16 15:40, 0.9970833
2024/05/16 15:42, 0.9821666
2024/05/16 15:44, 0.9783333
2024/05/16 15:46, 0.9768333
2024/05/16 15:48, 0.9714166
2024/05/16 15:50, 0.989
2024/05/16 15:52, 0.9865417
2024/05/16 15:54, 0.9954583
2024/05/16 15:56, 0.9800833
2024/05/16 15:58, 0.9989166
2024/05/16 16:00, 0.9719583
2024/05/16 16:02, 0.9819999
2024/05/16 16:04, 0.9967916
2024/05/16 16:06, 0.9840832
2024/05/16 16:08, 1.000667
2024/05/16 16:10, 0.9828334
2024/05/16 16:12, 0.9985833
2024/05/16 16:14, 0.9877916
2024/05/16 16:16, 0.980375
2024/05/16 16:18, 0.9869582
2024/05/16 16:20, 0.986
2024/05/16 16:22, 0.98775
2024/05/16 16:24, 0.9874583
2024/05/16 16:26, 0.9839166
2024/05/16 16:28, 0.9856666
2024/05/16 16:30, 0.9857083
2024/05/16 16:32, 0.9789583
2024/05/16 16:34, 0.9772917
2024/05/16 16:36, 0.979125
2024/05/16 16:38, 0.9946666
2024/05/16 16:40, 0.992875
2024/05/16 16:42, 0.9877916
2024/05/16 16:44, 0.9983333
2024/05/16 16:46, 0.9909582
2024/05/16 16:48, 0.9817499
2024/05/16 16:50, 0.9815416
2024/05/16 16:52, 0.9952917
2024/05/16 16:54, 0.9859582
2024/05/16 16:56, 0.9795416
2024/05/16 16:58, 0.973125
2024/05/16 17:00, 0.9844999
2024/05/16 17:02, 0.9919999
2024/05/16 17:04, 0.98775
2024/05/16 17:06, 1.001542
2024/05/16 17:08, 0.9805
2024/05/16 17:10, 0.979625
2024/05/16 17:12, 0.9792499
2024/05/16 17:14, 0.9886666
2024/05/16 17:16, 0.9893334
2024/05/16 17:18, 0.9771666
2024/05/16 17:20, 0.980375
2024/05/16 17:22, 0.9939999
2024/05/16 17:24, 0.982625
2024/05/16 17:26, 0.9918333
2024/05/16 17:28, 0.9817499
2024/05/16 17:30, 0.978875
2024/05/16 17:32, 0.9845417
2024/05/16 17:34, 0.979125
2024/05/16 17:36, 0.999625
2024/05/16 17:38, 0.9888333
2024/05/16 17:40, 0.9937499
2024/05/16 17:42, 0.983375
2024/05/16 17:44, 1.006042
2024/05/16 17:46, 0.9887082
2024/05/16 17:48, 0.993625
2024/05/16 17:50, 0.9809166
2024/05/16 17:52, 0.99875
2024/05/16 17:54, 0.98325
2024/05/16 17:56, 0.9952917
2024/05/16 17:58, 0.9836666
2024/05/16 18:00, 0.9905416
2024/05/16 18:02, 0.9867083
2024/05/16 18:04, 0.9886666
2024/05/16 18:06, 0.9904582
2024/05/16 18:08, 0.991875
2024/05/16 18:10, 0.9826666
2024/05/16 18:12, 0.98425
2024/05/16 18:14, 0.9859166
2024/05/16 18:16, 0.984875
2024/05/16 18:18, 0.9809166
2024/05/16 18:20, 0.9841666
2024/05/16 18:22, 0.9777916
2024/05/16 18:24, 0.9929166
2024/05/16 18:26, 0.9920833
2024/05/16 18:28, 0.98875
2024/05/16 18:30, 0.989125
2024/05/16 18:32, 0.9995
2024/05/16 18:34, 0.98075
2024/05/16 18:36, 0.9937083
2024/05/16 18:38, 0.9782916
2024/05/16 18:40, 0.9892916
2024/05/16 18:42, 0.9932499
2024/05/16 18:44, 0.9744999
2024/05/16 18:46, 0.9987916
2024/05/16 18:48, 0.986
2024/05/16 18:50, 0.9864583
2024/05/16 18:52, 0.9854999
2024/05/16 18:54, 0.993125
2024/05/16 18:56, 0.9817083
2024/05/16 18:58, 0.9853333
2024/05/16 19:00, 0.9937499
2024/05/16 19:02, 0.9949583
2024/05/16 19:04, 0.9825416
2024/05/16 19:06, 0.9892916
2024/05/16 19:08, 0.9926666
2024/05/16 19:10, 0.9845833
2024/05/16 19:12, 0.993625
2024/05/16 19:14, 0.9895416
2024/05/16 19:16, 0.9894583
2024/05/16 19:18, 0.9934166
2024/05/16 19:20, 0.9802916
2024/05/16 19:22, 0.984125
2024/05/16 19:24, 0.982875
2024/05/16 19:26, 0.9957083
2024/05/16 19:28, 0.9857916
2024/05/16 19:30, 1.000167
2024/05/16 19:32, 0.983875
2024/05/16 19:34, 0.9870833
2024/05/16 19:36, 0.9871666
2024/05/16 19:38, 0.9961666
2024/05/16 19:40, 0.9637083
2024/05/16 19:42, 0.9878333
2024/05/16 19:44, 0.982625
2024/05/16 19:46, 0.991875
2024/05/16 19:48, 0.9805833
2024/05/16 19:50, 1.0025
2024/05/16 19:52, 0.964875
2024/05/16 19:54, 0.9852082
2024/05/16 19:56, 0.9688333
2024/05/16 19:58, 0.9777916
2024/05/16 20:00, 0.9817917
2024/05/16 20:02, 0.9867499
2024/05/16 20:04, 0.9910417
2024/05/16 20:06, 0.9792916
2024/05/16 20:08, 0.9837499
2024/05/16 20:10, 0.9890416
2024/05/16 20:12, 0.9964166
2024/05/16 20:14, 0.986125
2024/05/16 20:16, 0.9959166
2024/05/16 20:18, 0.9784999
2024/05/16 20:20, 0.983
2024/05/16 20:22, 0.9865417
2024/05/16 20:24, 0.9865
2024/05/16 20:26, 0.9795833
2024/05/16 20:28, 0.9772499
2024/05/16 20:30, 0.983
2024/05/16 20:32, 0.9813333
2024/05/16 20:34, 0.993875
2024/05/16 20:36, 0.97875
2024/05/16 20:38, 0.984625
2024/05/16 20:40, 1.003042
2024/05/16 20:42, 0.992375
2024/05/16 20:44, 0.9886666
2024/05/16 20:46, 0.9967083
2024/05/16 20:48, 0.9848333
2024/05/16 20:50, 0.9749582
2024/05/16 20:52, 0.989375
2024/05/16 20:54, 0.9898749
2024/05/16 20:56, 0.9755833
2024/05/16 20:58, 0.9837499
2024/05/16 21:00, 0.9909582
2024/05/16 21:02, 0.9812916
2024/05/16 21:04, 0.9732916
2024/05/16 21:06, 0.9845833
2024/05/16 21:08, 0.9815416
2024/05/16 21:10, 0.9977083
2024/05/16 21:12, 0.9899583
2024/05/16 21:14, 0.9769582
2024/05/16 21:16, 0.9905833
2024/05/16 21:18, 0.9805
2024/05/16 21:20, 0.997625
2024/05/16 21:22, 0.9990833
2024/05/16 21:24, 0.9992499
2024/05/16 21:26, 0.9853333
2024/05/16 21:28, 0.9900833
2024/05/16 21:30, 0.99075
2024/05/16 21:32, 0.9786666
2024/05/16 21:34, 1.00525
2024/05/16 21:36, 0.9796666
2024/05/16 21:38, 0.9854999
2024/05/16 21:40, 0.9781666
2024/05/16 21:42, 0.9887917
2024/05/16 21:44, 0.9864166
2024/05/16 21:46, 0.9816666
2024/05/16 21:48, 1.000792
2024/05/16 21:50, 0.9907499
2024/05/16 21:52, 0.9829166
2024/05/16 21:54, 0.9945833
2024/05/16 21:56, 0.9909582
2024/05/16 21:58, 0.973
2024/05/16 22:00, 0.9694166
2024/05/16 22:02, 0.9744999
2024/05/16 22:04, 0.972125
2024/05/16 22:06, 0.9887082
2024/05/16 22:08, 0.9934582
2024/05/16 22:10, 0.9839166
2024/05/16 22:12, 0.9849166
2024/05/16 22:14, 0.9725833
2024/05/16 22:16, 0.9782916
2024/05/16 22:18, 0.9790833
2024/05/16 22:20, 0.9751666
2024/05/16 22:22, 0.9707083
2024/05/16 22:24, 0.9714582
2024/05/16 22:26, 0.9989583
2024/05/16 22:28, 0.9683333
2024/05/16 22:30, 0.96875
2024/05/16 22:32, 0.9825
2024/05/16 22:34, 0.9846666
2024/05/16 22:36, 0.9978333
2024/05/16 22:38, 0.9805
2024/05/16 22:40, 0.9869166
2024/05/16 22:42, 0.9826666
2024/05/16 22:44, 0.9914583
2024/05/16 22:46, 0.9730416
2024/05/16 22:48, 0.9920833
2024/05/16 22:50, 0.9810834
2024/05/16 22:52, 0.9762082
2024/05/16 22:54, 0.978625
2024/05/16 22:56, 0.9909166
2024/05/16 22:58, 0.9831666
2024/05/16 23:00, 0.9894583
2024/05/16 23:02, 0.998
2024/05/16 23:04, 0.9947916
2024/05/16 23:06, 0.9799583
2024/05/16 23:08, 0.983875
2024/05/16 23:10, 0.989875
2024/05/16 23:12, 0.982125
2024/05/16 23:14, 0.987
2024/05/16 23:16, 0.98525
2024/05/16 23:18, 0.997125
2024/05/16 23:20, 0.9802499
2024/05/16 23:22, 0.9867499
2024/05/16 23:24, 1.000083
2024/05/16 23:26, 0.9819166
2024/05/16 23:28, 0.9902499
2024/05/16 23:30, 0.9874167
2024/05/16 23:32, 0.9780833
2024/05/16 23:34, 0.9785416
2024/05/16 23:36, 0.9787082
2024/05/16 23:38, 1.006292
2024/05/16 23:40, 0.97975
2024/05/16 23:42, 1.001958
2024/05/16 23:44, 1.004125
2024/05/16 23:46, 0.987375
2024/05/16 23:48, 0.9815
2024/05/16 23:50, 0.9849583
2024/05/16 23:52, 0.983375
2024/05/16 23:54, 0.9800417
2024/05/16 23:56, 0.9872083
2024/05/16 23:58, 0.990875
2024/05/17 00:00, 0.9853333
2024/05/17 00:02, 0.975125
2024/05/17 00:04, 0.9850833
2024/05/17 00:06, 0.9806666
2024/05/17 00:08, 0.9833333
2024/05/17 00:10, 0.979625
2024/05/17 00:12, 0.9878333
2024/05/17 00:14, 0.99075
2024/05/17 00:16, 0.979125
2024/05/17 00:18, 0.9892083
2024/05/17 00:20, 0.9954583
2024/05/17 00:22, 0.969125
2024/05/17 00:24, 0.983375
2024/05/17 00:26, 0.999125
2024/05/17 00:28, 0.9797917
2024/05/17 00:30, 0.987
2024/05/17 00:32, 0.9799999
2024/05/17 00:34, 0.9881666
2024/05/17 00:36, 0.9977916
2024/05/17 00:38, 0.98875
2024/05/17 00:40, 0.9885834
2024/05/17 00:42, 0.9777083
2024/05/17 00:44, 0.97775
2024/05/17 00:46, 0.9970833
2024/05/17 00:48, 0.9927917
2024/05/17 00:50, 0.9979166
2024/05/17 00:52, 0.9883333
2024/05/17 00:54, 0.9911666
2024/05/17 00:56, 0.9824583
2024/05/17 00:58, 0.9919999
2024/05/17 01:00, 0.9819583
2024/05/17 01:02, 0.9905
2024/05/17 01:04, 0.9925
2024/05/17 01:06, 0.9837499
2024/05/17 01:08, 0.979375
2024/05/17 01:10, 0.9937916
2024/05/17 01:12, 0.9895416
2024/05/17 01:14, 0.989125
2024/05/17 01:16, 0.982375
2024/05/17 01:18, 0.9909166
2024/05/17 01:20, 1.005375
2024/05/17 01:22, 0.9809583
2024/05/17 01:24, 0.9955833
2024/05/17 01:26, 0.9884583
2024/05/17 01:28, 0.9745834
2024/05/17 01:30, 0.9892499
2024/05/17 01:32, 0.9694583
2024/05/17 01:34, 0.9890416
2024/05/17 01:36, 0.9869582
2024/05/17 01:38, 0.9816666
2024/05/17 01:40, 0.9662917
2024/05/17 01:42, 0.9918333
2024/05/17 01:44, 1.003917
2024/05/17 01:46, 0.96925
2024/05/17 01:48, 0.9832916
2024/05/17 01:50, 0.9790416
2024/05/17 01:52, 0.977375
2024/05/17 01:54, 0.9957916
2024/05/17 01:56, 0.9949999
2024/05/17 01:58, 0.9703333
2024/05/17 02:00, 0.9974166
2024/05/17 02:02, 0.990125
2024/05/17 02:04, 1.0055
2024/05/17 02:06, 0.9945417
2024/05/17 02:08, 0.9924166
2024/05/17 02:10, 0.9814166
2024/05/17 02:12, 1.005583
2024/05/17 02:14, 0.9888333
2024/05/17 02:16, 0.9835417
2024/05/17 02:18, 0.9836666
2024/05/17 02:20, 0.9795833
2024/05/17 02:22, 0.990125
2024/05/17 02:24, 0.9959166
2024/05/17 02:26, 0.968625
2024/05/17 02:28, 0.975625
2024/05/17 02:30, 0.9825833
2024/05/17 02:32, 0.9788333
2024/05/17 02:34, 0.9823333
2024/05/17 02:36, 0.9949999
2024/05/17 02:38, 0.9729583
2024/05/17 02:40, 0.99425
2024/05/17 02:42, 0.9824166
2024/05/17 02:44, 0.9885416
2024/05/17 02:46, 0.9768333
2024/05/17 02:48, 0.9899999
2024/05/17 02:50, 0.97
2024/05/17 02:52, 0.9807499
2024/05/17 02:54, 0.9857916
2024/05/17 02:56, 0.9838261
2024/05/17 02:58, 0.9949166
2024/05/17 03:00, 0.999
2024/05/17 03:02, 0.989875
2024/05/17 03:04, 0.9848333
2024/05/17 03:06, 0.9831666